| time (UTC) | temp C | wind direction | speed KPH | gust KPH | rain 1hr cm | rain 24hr cm | rain mn cm | humidity % | barometer mb |
| 20260505191825 | 3 | 273 | 3.2 | 11.3 | 0.00 | 0.08 | 0.08 | 59 | 998.5 |
| 20260505190904 | 3 | 275 | 3.2 | 11.3 | 0.00 | 0.08 | 0.08 | 58 | 998.4 |
| 20260505190004 | 3 | 280 | 4.8 | 11.3 | 0.00 | 0.08 | 0.08 | 57 | 998.4 |
| 20260505185404 | 4 | 280 | 3.2 | 12.9 | 0.00 | 0.08 | 0.08 | 56 | 998.3 |
| 20260505184504 | 4 | 279 | 6.4 | 12.9 | 0.00 | 0.08 | 0.08 | 55 | 998.3 |
| 20260505183604 | 4 | 273 | 3.2 | 14.5 | 0.00 | 0.08 | 0.08 | 55 | 998.2 |
| 20260505182704 | 5 | 266 | 1.6 | 9.7 | 0.00 | 0.08 | 0.08 | 52 | 998.1 |
| 20260505181804 | 5 | 277 | 6.4 | 14.5 | 0.00 | 0.08 | 0.08 | 51 | 998.1 |
| 20260505180904 | 5 | 276 | 8.0 | 20.9 | 0.00 | 0.08 | 0.08 | 50 | 998.1 |
| 20260505180004 | 6 | 279 | 11.3 | 25.7 | 0.00 | 0.08 | 0.08 | 48 | 998.0 |
| 20260505175404 | 6 | 277 | 11.3 | 20.9 | 0.00 | 0.08 | 0.08 | 49 | 997.8 |
| 20260505174504 | 6 | 280 | 11.3 | 29.0 | 0.00 | 0.08 | 0.08 | 47 | 997.8 |
| 20260505173604 | 7 | 278 | 11.3 | 22.5 | 0.00 | 0.08 | 0.08 | 47 | 997.7 |
| 20260505172704 | 7 | 276 | 12.9 | 29.0 | 0.00 | 0.08 | 0.08 | 46 | 997.7 |
| 20260505171804 | 7 | 276 | 11.3 | 24.1 | 0.00 | 0.08 | 0.08 | 46 | 997.6 |
| 20260505170904 | 7 | 279 | 12.9 | 29.0 | 0.00 | 0.08 | 0.08 | 46 | 997.6 |
| 20260505170004 | 7 | 283 | 12.9 | 25.7 | 0.00 | 0.08 | 0.08 | 46 | 997.6 |
| 20260505165404 | 7 | 282 | 12.9 | 25.7 | 0.00 | 0.08 | 0.08 | 45 | 997.5 |
| 20260505164504 | 7 | 279 | 16.1 | 32.2 | 0.00 | 0.08 | 0.08 | 45 | 997.5 |
| 20260505163604 | 7 | 290 | 17.7 | 32.2 | 0.00 | 0.08 | 0.08 | 45 | 997.5 |
| 20260505162704 | 7 | 292 | 17.7 | 32.2 | 0.00 | 0.08 | 0.08 | 45 | 997.4 |
| 20260505161804 | 7 | 288 | 16.1 | 29.0 | 0.00 | 0.08 | 0.08 | 47 | 997.4 |
| 20260505160904 | 7 | 287 | 19.3 | 38.6 | 0.00 | 0.08 | 0.08 | 47 | 997.3 |
| 20260505152704 | 8 | 280 | 16.1 | 32.2 | 0.00 | 0.08 | 0.08 | 44 | 996.9 |
| 20260505151804 | 8 | 286 | 14.5 | 30.6 | 0.00 | 0.08 | 0.08 | 45 | 996.8 |
| 20260505150904 | 7 | 288 | 19.3 | 40.2 | 0.00 | 0.08 | 0.08 | 47 | 996.7 |
| 20260505124525 | 6 | 277 | 16.1 | 32.2 | 0.00 | 0.08 | 0.08 | 58 | 995.9 |
| 20260505123604 | 6 | 277 | 17.7 | 37.0 | 0.00 | 0.08 | 0.08 | 59 | 995.7 |
| 20260505122703 | 6 | 276 | 11.3 | 27.4 | 0.00 | 0.08 | 0.08 | 60 | 995.7 |
| 20260505121803 | 5 | 286 | 14.5 | 29.0 | 0.00 | 0.08 | 0.08 | 64 | 995.7 |
| 20260505120904 | 5 | 285 | 17.7 | 30.6 | 0.00 | 0.08 | 0.08 | 65 | 995.7 |
| 20260505120004 | 5 | 291 | 17.7 | 29.0 | 0.00 | 0.08 | 0.08 | 66 | 995.7 |
| 20260505115404 | 5 | 291 | 17.7 | 33.8 | 0.00 | 0.08 | 0.08 | 66 | 995.7 |
| 20260505114525 | 5 | 280 | 16.1 | 35.4 | 0.00 | 0.08 | 0.08 | 66 | 995.6 |
| 20260505113603 | 5 | 279 | 16.1 | 40.2 | 0.00 | 0.08 | 0.08 | 65 | 995.5 |
| 20260505112704 | 5 | 275 | 16.1 | 32.2 | 0.00 | 0.08 | 0.08 | 66 | 995.3 |
| 20260505111803 | 5 | 283 | 14.5 | 27.4 | 0.00 | 0.08 | 0.08 | 68 | 995.3 |
| 20260505110903 | 5 | 291 | 16.1 | 32.2 | 0.00 | 0.08 | 0.08 | 68 | 995.2 |
| 20260505101803 | 4 | 275 | 11.3 | 27.4 | 0.00 | 0.08 | 0.08 | 71 | 994.6 |
| 20260505100904 | 4 | 281 | 20.9 | 43.5 | 0.00 | 0.08 | 0.08 | 71 | 994.5 |
| 20260505100004 | 4 | 280 | 16.1 | 35.4 | 0.00 | 0.08 | 0.08 | 71 | 994.4 |
| 20260505095403 | 4 | 278 | 14.5 | 30.6 | 0.00 | 0.08 | 0.08 | 73 | 994.4 |
| 20260505094504 | 4 | 274 | 16.1 | 41.8 | 0.00 | 0.08 | 0.08 | 72 | 994.2 |
| 20260505093603 | 4 | 271 | 12.9 | 29.0 | 0.00 | 0.08 | 0.08 | 73 | 994.0 |
| 20260505092703 | 4 | 277 | 16.1 | 29.0 | 0.00 | 0.08 | 0.08 | 72 | 994.0 |
| 20260505091804 | 4 | 270 | 12.9 | 27.4 | 0.00 | 0.08 | 0.08 | 73 | 993.8 |
| 20260505090903 | 4 | 267 | 12.9 | 29.0 | 0.00 | 0.08 | 0.08 | 73 | 993.8 |
| 20260505090004 | 4 | 278 | 17.7 | 32.2 | 0.00 | 0.08 | 0.08 | 75 | 993.5 |
| 20260505085424 | 3 | 281 | 16.1 | 33.8 | 0.00 | 0.08 | 0.08 | 76 | 993.7 |
| 20260505084525 | 4 | 275 | 17.7 | 30.6 | 0.00 | 0.08 | 0.08 | 74 | 993.6 |
| 20260505083604 | 4 | 274 | 16.1 | 30.6 | 0.00 | 0.08 | 0.08 | 73 | 993.3 |
| 20260505082703 | 4 | 276 | 14.5 | 35.4 | 0.00 | 0.08 | 0.08 | 73 | 993.3 |
| 20260505081803 | 5 | 263 | 8.0 | 19.3 | 0.00 | 0.08 | 0.08 | 74 | 993.2 |
| 20260505080903 | 5 | 268 | 9.7 | 24.1 | 0.00 | 0.08 | 0.08 | 73 | 993.1 |
| 20260505080025 | 4 | 263 | 11.3 | 30.6 | 0.00 | 0.08 | 0.08 | 74 | 993.0 |
| 20260505075403 | 5 | 209 | 8.0 | 24.1 | 0.00 | 0.08 | 0.08 | 74 | 993.0 |
| 20260505074504 | 5 | 218 | 8.0 | 25.7 | 0.00 | 0.08 | 0.08 | 74 | 993.0 |
| 20260505073624 | 4 | 254 | 6.4 | 19.3 | 0.00 | 0.08 | 0.08 | 77 | 992.9 |
| 20260505072703 | 4 | 253 | 8.0 | 27.4 | 0.00 | 0.08 | 0.08 | 77 | 992.9 |
| 20260505071803 | 5 | 248 | 4.8 | 22.5 | 0.00 | 0.08 | 0.08 | 78 | 993.0 |
| 20260505070903 | 4 | 228 | 4.8 | 16.1 | 0.00 | 0.08 | 0.08 | 78 | 992.8 |
| 20260505070004 | 4 | 254 | 4.8 | 16.1 | 0.00 | 0.08 | 0.08 | 79 | 993.0 |
| 20260505065404 | 4 | 253 | 6.4 | 17.7 | 0.00 | 0.08 | 0.08 | 80 | 992.8 |
| 20260505064504 | 4 | 254 | 6.4 | 17.7 | 0.00 | 0.08 | 0.08 | 79 | 992.8 |
| 20260505063603 | 4 | 235 | 4.8 | 16.1 | 0.00 | 0.08 | 0.08 | 82 | 992.6 |
| 20260505062703 | 3 | 207 | 4.8 | 22.5 | 0.00 | 0.08 | 0.08 | 82 | 992.6 |
| 20260505061803 | 3 | 189 | 4.8 | 16.1 | 0.00 | 0.08 | 0.08 | 83 | 992.7 |
| 20260505060903 | 3 | 216 | 4.8 | 16.1 | 0.00 | 0.08 | 0.08 | 83 | 992.6 |
| 20260505060024 | 3 | 204 | 4.8 | 17.7 | 0.00 | 0.08 | 0.08 | 84 | 992.6 |
| 20260505055403 | 3 | 229 | 4.8 | 14.5 | 0.00 | 0.08 | 0.08 | 86 | 992.7 |
| 20260505054504 | 2 | 242 | 6.4 | 16.1 | 0.00 | 0.08 | 0.08 | 86 | 992.7 |
| 20260505053603 | 2 | 238 | 4.8 | 17.7 | 0.00 | 0.08 | 0.08 | 86 | 992.8 |
| 20260505052703 | 2 | 232 | 4.8 | 17.7 | 0.00 | 0.08 | 0.08 | 87 | 992.7 |
| 20260505051803 | 2 | 237 | 4.8 | 20.9 | 0.00 | 0.08 | 0.08 | 87 | 992.7 |
| 20260505050903 | 2 | 217 | 4.8 | 14.5 | 0.00 | 0.08 | 0.08 | 87 | 992.8 |
| 20260505040924 | 2 | 238 | 6.4 | 20.9 | 0.00 | 0.08 | 0.08 | 88 | 992.8 |
| 20260505040004 | 2 | 248 | 6.4 | 22.5 | 0.00 | 0.08 | 0.08 | 89 | 992.8 |
| 20260505035403 | 2 | 254 | 6.4 | 22.5 | 0.00 | 0.08 | 0.08 | 89 | 992.9 |
| 20260505034503 | 2 | 239 | 6.4 | 17.7 | 0.00 | 0.08 | 0.08 | 89 | 992.8 |
| 20260505033603 | 2 | 215 | 6.4 | 17.7 | 0.00 | 0.08 | 0.08 | 89 | 992.8 |
| 20260505032703 | 2 | 221 | 3.2 | 17.7 | 0.00 | 0.08 | 0.08 | 90 | 992.7 |
| 20260505031803 | 2 | 234 | 3.2 | 17.7 | 0.00 | 0.08 | 0.08 | 90 | 992.6 |
| 20260505030924 | 2 | 240 | 3.2 | 12.9 | 0.00 | 0.08 | 0.08 | 90 | 992.5 |
| 20260505030003 | 2 | 235 | 4.8 | 16.1 | 0.00 | 0.08 | 0.08 | 90 | 992.6 |
| 20260505025403 | 2 | 229 | 4.8 | 16.1 | 0.00 | 0.08 | 0.08 | 90 | 992.7 |
| 20260505024503 | 2 | 234 | 4.8 | 19.3 | 0.00 | 0.08 | 0.08 | 90 | 992.6 |
| 20260505023624 | 2 | 226 | 4.8 | 16.1 | 0.00 | 0.08 | 0.08 | 91 | 992.6 |
| 20260505022703 | 2 | 231 | 4.8 | 25.7 | 0.00 | 0.08 | 0.08 | 91 | 992.6 |
| 20260505021824 | 2 | 221 | 4.8 | 22.5 | 0.00 | 0.08 | 0.08 | 91 | 992.6 |
| 20260505020903 | 2 | 216 | 3.2 | 17.7 | 0.00 | 0.08 | 0.08 | 91 | 992.5 |
| 20260505020003 | 2 | 228 | 4.8 | 19.3 | 0.00 | 0.08 | 0.08 | 91 | 992.7 |
| 20260505015403 | 2 | 218 | 6.4 | 19.3 | 0.00 | 0.08 | 0.08 | 91 | 992.7 |
| 20260505014524 | 2 | 209 | 4.8 | 20.9 | 0.00 | 0.08 | 0.08 | 91 | 992.7 |
| 20260505013603 | 2 | 194 | 3.2 | 14.5 | 0.00 | 0.08 | 0.08 | 91 | 992.6 |
| 20260505012703 | 2 | 215 | 3.2 | 14.5 | 0.00 | 0.08 | 0.08 | 91 | 992.6 |
| 20260505011803 | 2 | 222 | 6.4 | 27.4 | 0.00 | 0.08 | 0.08 | 91 | 992.7 |
| 20260505010903 | 2 | 208 | 4.8 | 16.1 | 0.00 | 0.08 | 0.08 | 91 | 992.8 |
| 20260505010004 | 2 | 229 | 4.8 | 19.3 | 0.03 | 0.08 | 0.08 | 91 | 992.8 |
| 20260505005403 | 2 | 246 | 4.8 | 19.3 | 0.03 | 0.08 | 0.08 | 91 | 992.7 |
| 20260505004503 | 2 | 258 | 4.8 | 20.9 | 0.03 | 0.08 | 0.08 | 91 | 992.5 |
| 20260505003603 | 2 | 274 | 4.8 | 16.1 | 0.03 | 0.08 | 0.08 | 91 | 992.5 |
| 20260505002724 | 2 | 266 | 6.4 | 19.3 | 0.03 | 0.08 | 0.08 | 91 | 992.5 |
| 20260505001803 | 2 | 262 | 6.4 | 25.7 | 0.03 | 0.08 | 0.08 | 91 | 992.6 |
| 20260505000903 | 2 | 262 | 6.4 | 24.1 | 0.03 | 0.08 | 0.08 | 90 | 992.6 |
| 20260505000004 | 2 | 246 | 8.0 | 29.0 | 0.00 | 0.05 | 0.05 | 90 | 992.3 |
| 20260504235424 | 2 | 240 | 6.4 | 29.0 | 0.03 | 0.05 | 0.05 | 90 | 992.4 |
| 20260504234503 | 2 | 213 | 4.8 | 14.5 | 0.03 | 0.05 | 0.05 | 91 | 992.3 |
| 20260504233603 | 1 | 213 | 3.2 | 16.1 | 0.03 | 0.05 | 0.05 | 91 | 992.4 |
| 20260504232703 | 1 | 213 | 3.2 | 11.3 | 0.03 | 0.05 | 0.05 | 90 | 992.5 |
| 20260504231803 | 1 | 206 | 1.6 | 6.4 | 0.03 | 0.05 | 0.05 | 90 | 992.5 |
| 20260504230903 | 1 | 216 | 0.0 | 1.6 | 0.05 | 0.05 | 0.05 | 89 | 992.6 |
| 20260504230003 | 1 | 222 | 1.6 | 6.4 | 0.05 | 0.05 | 0.05 | 89 | 992.7 |
| 20260504225403 | 1 | 237 | 1.6 | 6.4 | 0.03 | 0.03 | 0.03 | 88 | 992.7 |
| 20260504224503 | 1 | 252 | 0.0 | 3.2 | 0.03 | 0.03 | 0.03 | 87 | 992.9 |
| 20260504223603 | 1 | 252 | 0.0 | 3.2 | 0.03 | 0.03 | 0.03 | 87 | 992.9 |
| 20260504222703 | 1 | 253 | 0.0 | 3.2 | 0.03 | 0.03 | 0.03 | 86 | 993.0 |
| 20260504221803 | 1 | 235 | 1.6 | 6.4 | 0.03 | 0.03 | 0.03 | 84 | 993.1 |
| 20260504220903 | 2 | 263 | 3.2 | 9.7 | 0.00 | 0.00 | 0.00 | 80 | 993.2 |
| 20260504220003 | 3 | 269 | 3.2 | 12.9 | 0.00 | 0.00 | 0.00 | 75 | 993.3 |
| 20260504215403 | 3 | 213 | 0.0 | 3.2 | 0.00 | 0.00 | 0.00 | 72 | 993.2 |
| 20260504214503 | 3 | 233 | 1.6 | 4.8 | 0.00 | 0.00 | 0.00 | 71 | 993.0 |
| 20260504213624 | 3 | 269 | 1.6 | 9.7 | 0.00 | 0.00 | 0.00 | 69 | 992.9 |
| 20260504212703 | 3 | 253 | 3.2 | 9.7 | 0.00 | 0.00 | 0.00 | 68 | 993.0 |
| 20260504211803 | 3 | 280 | 9.7 | 16.1 | 0.00 | 0.00 | 0.00 | 66 | 992.9 |
| 20260504210903 | 3 | 283 | 9.7 | 19.3 | 0.00 | 0.00 | 0.00 | 64 | 993.0 |
| 20260504210004 | 3 | 301 | 12.9 | 25.7 | 0.00 | 0.00 | 0.00 | 63 | 992.9 |
| 20260504205403 | 3 | 308 | 14.5 | 25.7 | 0.00 | 0.00 | 0.00 | 63 | 992.9 |
| 20260504204503 | 4 | 301 | 14.5 | 24.1 | 0.00 | 0.00 | 0.00 | 63 | 993.1 |
| 20260504203603 | 4 | 301 | 12.9 | 25.7 | 0.00 | 0.00 | 0.00 | 62 | 993.2 |
| 20260504202703 | 4 | 307 | 9.7 | 20.9 | 0.00 | 0.00 | 0.00 | 63 | 993.1 |
| 20260504201803 | 4 | 283 | 8.0 | 14.5 | 0.00 | 0.00 | 0.00 | 63 | 993.3 |
| 20260504200903 | 4 | 277 | 11.3 | 24.1 | 0.00 | 0.00 | 0.00 | 62 | 993.6 |
| 20260504200003 | 4 | 270 | 6.4 | 17.7 | 0.00 | 0.00 | 0.00 | 63 | 993.8 |
| 20260504195403 | 4 | 273 | 4.8 | 12.9 | 0.00 | 0.00 | 0.00 | 64 | 993.8 |
| 20260504194503 | 5 | 277 | 6.4 | 12.9 | 0.00 | 0.00 | 0.00 | 63 | 993.1 |
| 20260504193603 | 5 | 286 | 6.4 | 16.1 | 0.00 | 0.00 | 0.00 | 63 | 993.3 |
| 20260504192703 | 5 | 291 | 6.4 | 16.1 | 0.00 | 0.00 | 0.00 | 61 | 993.2 |